STARLINK-32423, 61218

Orbit data source: Space-Track

STARLINK-32423, 61218 is a payload satellite owned by SpaceX/Seattle (US) in LEO that was launched on Fri, 20 Sep 2024 UTC via an FALCON 9 launch vehicle from the Air Force Western Test Range (AFWTR). Payload-class satellites include a variety of spacecraft equipped with specific instruments for various scientific and technological missions. These include communications satellites like Starlink; space stations such as the ISS; scientific satellites like the Hubble; Earth observation satellites from companies like Planet Labs, Umbra, and HawkEye 360; GPS; miniature CubeSats for education and research; and military/defense satellites.

Loading next visibility...
Identifier
61218, 2024-171U
Orbit
LEO
Country
Flag of USUS
Related business
Manufacturer
SpaceX/Seattle
Mission
Operational Commercial Communications
Bus & Motor
STARLINK V2M, Unknown motor
Mass
730 kg wet, ~700 kg dry
Launch date (UTC)
2024-09-20 (2 years ago)
Launch vehicle
FALCON 9
Launch site
Air Force Western Test Range (AFWTR)
Object type
Payload
Rocket body
Debris
Shape & HBR
Box + 2 Pan, 17.7 m
Radar Cross Section
33.884 m², Large (>1 m²)

Expand to show TLE details & history
Last TLE update: 11 hours ago

TLE from 11 hours ago
0 STARLINK-32423
1 61218U 24171U   26171.39766440  .00097972  00000-0  31854-2 0  9996
2 61218  53.1601 205.3688 0000971  75.9702 284.1407 15.31112236 99004
Epoch: 2026-06-20T09:32Z
TLE epoch observation values (Epoch: 2026-06-20T09:32:38.204Z)
Latitude
-0.00001°
Longitude
153.59674°
Altitude
473.23 km
Speed
7.631 km/s
True Right ascension
13h 41m 28s
True Declination
0° 00' 00"
Sunlit
Object was in full shadow at epoch
Visualization orbit readout
Latitude
Unknown
Longitude
Unknown
Altitude
Unknown
Speed
Unknown
Apparent Right ascension
Unknown
Apparent Declination
Unknown
Sunlit
N/A
Visualization observer readout
Local Sidereal Time
07:16:50
Azimuth
Unknown
Elevation
Unknown
Doppler factor
Unknown
Orbital elements
Apogee altitude
473.414 km
Perigee altitude
472.084 km
Semi-major axis
6,850.886 km
Eccentricity
0.0001
Inclination
53.1601°
RAAN
205.3688°
Arg. of periapsis
75.9702°
True anomaly
284.12991°
Mean anomaly
284.1407°
Eccentric anomaly
284.13531°
Mean motion
3.82757 °/min
Orbital period
94.05 mins
BSTAR
0.0031854
Loading maneuver chart data...
Computing Atmospheric mass density...
Loading historical data...
Loading historical data...
Loading historical data...
Loading historical data...
Loading historical data...
Loading historical data...
Loading historical data...

Documentation

Showing up to 5 results
|